| time (UTC) | temp F | wind direction | speed MPH | gust MPH | rain 1hr in | rain 24hr in | rain mn in | humidity % | barometer mb |
| 20260507131521 | 51 | 136 | 1.0 | 10.0 | 0.00 | 0.00 | 0.00 | 53 | 1018.1 |
| 20260507130011 | 51 | 137 | 1.0 | 9.0 | 0.00 | 0.00 | 0.00 | 43 | 1018.0 |
| 20260507124510 | 51 | 188 | 1.0 | 5.0 | 0.00 | 0.00 | 0.00 | 39 | 1018.1 |
| 20260507123009 | 51 | 39 | 1.0 | 7.0 | 0.00 | 0.00 | 0.00 | 40 | 1018.0 |
| 20260507121508 | 50 | 245 | 1.0 | 6.0 | 0.00 | 0.00 | 0.00 | 43 | 1018.0 |
| 20260507120007 | 49 | 142 | 0.0 | 9.0 | 0.00 | 0.00 | 0.00 | 49 | 1017.8 |
| 20260507114505 | 50 | 160 | 0.0 | 10.0 | 0.00 | 0.00 | 0.00 | 51 | 1017.9 |
| 20260507113004 | 50 | 148 | 0.0 | 6.0 | 0.00 | 0.00 | 0.00 | 43 | 1018.0 |
| 20260507111507 | 50 | 134 | 1.0 | 5.0 | 0.00 | 0.00 | 0.00 | 44 | 1018.2 |
| 20260507110003 | 51 | 156 | 1.0 | 11.0 | 0.00 | 0.00 | 0.00 | 44 | 1018.2 |
| 20260507104502 | 51 | 183 | 1.0 | 7.0 | 0.00 | 0.00 | 0.00 | 44 | 1018.1 |
| 20260507103114 | 51 | 185 | 1.0 | 8.0 | 0.00 | 0.00 | 0.00 | 43 | 1018.2 |
| 20260507101602 | 51 | 112 | 0.0 | 6.0 | 0.00 | 0.00 | 0.00 | 42 | 1018.2 |
| 20260507100112 | 51 | 218 | 1.0 | 7.0 | 0.00 | 0.00 | 0.00 | 42 | 1018.3 |
| 20260507094556 | 51 | 149 | 0.0 | 6.0 | 0.00 | 0.01 | 0.00 | 44 | 1018.6 |
| 20260507093057 | 50 | 139 | 1.0 | 7.0 | 0.00 | 0.01 | 0.00 | 50 | 1018.8 |
| 20260507091556 | 50 | 120 | 0.0 | 6.0 | 0.00 | 0.01 | 0.00 | 50 | 1018.9 |
| 20260507090050 | 50 | 320 | 1.0 | 5.0 | 0.00 | 0.01 | 0.00 | 48 | 1019.0 |
| 20260507084551 | 50 | 119 | 0.0 | 3.0 | 0.00 | 0.14 | 0.00 | 44 | 1019.1 |
| 20260507083104 | 50 | 148 | 0.0 | 5.0 | 0.00 | 0.14 | 0.00 | 45 | 1019.2 |
| 20260507081556 | 50 | 133 | 0.0 | 3.0 | 0.00 | 0.14 | 0.00 | 46 | 1019.3 |
| 20260507080044 | 51 | 226 | 0.0 | 3.0 | 0.00 | 0.14 | 0.00 | 48 | 1019.5 |
| 20260507074543 | 51 | 233 | 0.0 | 2.0 | 0.00 | 0.14 | 0.00 | 51 | 1019.5 |
| 20260507073051 | 51 | 152 | 0.0 | 3.0 | 0.00 | 0.14 | 0.00 | 49 | 1019.6 |
| 20260507071537 | 50 | 180 | 0.0 | 2.0 | 0.00 | 0.14 | 0.00 | 45 | 1019.7 |
| 20260507070040 | 50 | 162 | 0.0 | 2.0 | 0.00 | 0.14 | 0.00 | 43 | 1019.8 |
| 20260507064539 | 50 | 136 | 0.0 | 4.0 | 0.00 | 0.14 | 0.00 | 44 | 1019.8 |
| 20260507063034 | 49 | 144 | 0.0 | 2.0 | 0.00 | 0.14 | 0.00 | 46 | 1019.8 |
| 20260507061530 | 49 | 191 | 0.0 | 2.0 | 0.00 | 0.14 | 0.00 | 45 | 1019.8 |
| 20260507060027 | 49 | 210 | 0.0 | 3.0 | 0.00 | 0.14 | 0.00 | 43 | 1019.8 |
| 20260507054533 | 48 | 223 | 0.0 | 1.0 | 0.00 | 0.14 | 0.14 | 44 | 1019.7 |
| 20260507053026 | 49 | 131 | 0.0 | 1.0 | 0.00 | 0.14 | 0.14 | 43 | 1019.6 |
| 20260507051526 | 51 | 139 | 0.0 | 1.0 | 0.00 | 0.14 | 0.14 | 41 | 1019.7 |
| 20260507050033 | 51 | 114 | 0.0 | 1.0 | 0.00 | 0.14 | 0.14 | 39 | 1019.7 |
| 20260507044537 | 52 | 263 | 0.0 | 3.0 | 0.00 | 0.14 | 0.14 | 35 | 1019.8 |
| 20260507043025 | 52 | 248 | 0.0 | 5.0 | 0.00 | 0.14 | 0.14 | 35 | 1019.7 |
| 20260507041530 | 51 | 226 | 0.0 | 1.0 | 0.00 | 0.14 | 0.14 | 37 | 1019.8 |
| 20260507040023 | 51 | 236 | 0.0 | 1.0 | 0.00 | 0.14 | 0.14 | 36 | 1019.8 |
| 20260507034523 | 51 | 229 | 0.0 | 1.0 | 0.00 | 0.14 | 0.14 | 37 | 1019.8 |
| 20260507033026 | 51 | 215 | 0.0 | 1.0 | 0.00 | 0.14 | 0.14 | 37 | 1019.7 |
| 20260507031526 | 50 | 56 | 0.0 | 0.0 | 0.00 | 0.14 | 0.14 | 36 | 1019.4 |
| 20260507030021 | 52 | 56 | 0.0 | 0.0 | 0.00 | 0.14 | 0.14 | 34 | 1019.3 |
| 20260507024523 | 54 | 56 | 0.0 | 0.0 | 0.00 | 0.14 | 0.14 | 32 | 1019.3 |
| 20260507023020 | 57 | 56 | 0.0 | 0.0 | 0.00 | 0.14 | 0.14 | 28 | 1019.2 |
| 20260507021520 | 60 | 56 | 0.0 | 1.0 | 0.00 | 0.14 | 0.14 | 26 | 1019.2 |
| 20260507020023 | 62 | 11 | 0.0 | 1.0 | 0.00 | 0.14 | 0.14 | 23 | 1019.3 |
| 20260507014524 | 63 | 1 | 0.0 | 3.0 | 0.00 | 0.14 | 0.14 | 22 | 1019.3 |
| 20260507013023 | 64 | 333 | 0.0 | 2.0 | 0.00 | 0.14 | 0.14 | 22 | 1019.4 |
| 20260507011520 | 63 | 21 | 0.0 | 4.0 | 0.00 | 0.14 | 0.14 | 24 | 1019.4 |
| 20260507010017 | 63 | 17 | 0.0 | 4.0 | 0.00 | 0.14 | 0.14 | 22 | 1019.4 |
| 20260507004531 | 63 | 352 | 0.0 | 6.0 | 0.00 | 0.14 | 0.14 | 24 | 1019.5 |
| 20260507003015 | 64 | 248 | 2.0 | 5.0 | 0.00 | 0.14 | 0.14 | 22 | 1019.5 |
| 20260507001517 | 63 | 36 | 1.0 | 5.0 | 0.00 | 0.14 | 0.14 | 24 | 1019.4 |
| 20260507000019 | 63 | 345 | 3.0 | 6.0 | 0.00 | 0.14 | 0.14 | 24 | 1019.4 |
| 20260506234520 | 63 | 293 | 2.0 | 9.0 | 0.00 | 0.14 | 0.14 | 23 | 1019.4 |
| 20260506233011 | 63 | 333 | 2.0 | 5.0 | 0.00 | 0.14 | 0.14 | 24 | 1019.4 |
| 20260506231524 | 63 | 278 | 4.0 | 11.0 | 0.00 | 0.14 | 0.14 | 24 | 1019.5 |
| 20260506230008 | 62 | 325 | 1.0 | 12.0 | 0.00 | 0.14 | 0.14 | 27 | 1019.4 |
| 20260506224510 | 62 | 276 | 4.0 | 11.0 | 0.00 | 0.14 | 0.14 | 25 | 1019.5 |
| 20260506223006 | 62 | 303 | 3.0 | 11.0 | 0.00 | 0.14 | 0.14 | 24 | 1019.5 |
| 20260506221506 | 62 | 277 | 4.0 | 10.0 | 0.00 | 0.14 | 0.14 | 25 | 1019.7 |
| 20260506220003 | 61 | 155 | 7.0 | 17.0 | 0.00 | 0.14 | 0.14 | 25 | 1019.6 |
| 20260506214503 | 60 | 295 | 3.0 | 11.0 | 0.00 | 0.14 | 0.14 | 27 | 1020.0 |
| 20260506213140 | 60 | 301 | 6.0 | 11.0 | 0.00 | 0.14 | 0.14 | 26 | 1020.0 |
| 20260506211627 | 60 | 293 | 3.0 | 15.0 | 0.00 | 0.14 | 0.14 | 26 | 1020.0 |
| 20260506204559 | 60 | 250 | 3.0 | 9.0 | 0.00 | 0.14 | 0.14 | 28 | 1020.0 |
| 20260506203100 | 59 | 292 | 5.0 | 14.0 | 0.00 | 0.14 | 0.14 | 28 | 1020.2 |
| 20260506201604 | 59 | 65 | 4.0 | 13.0 | 0.00 | 0.14 | 0.14 | 29 | 1020.0 |
| 20260506200153 | 58 | 344 | 4.0 | 13.0 | 0.00 | 0.14 | 0.14 | 28 | 1020.1 |
| 20260506194608 | 59 | 294 | 4.0 | 12.0 | 0.00 | 0.14 | 0.14 | 28 | 1019.9 |
| 20260506193051 | 59 | 9 | 5.0 | 15.0 | 0.00 | 0.14 | 0.14 | 28 | 1020.0 |
| 20260506191552 | 58 | 358 | 6.0 | 13.0 | 0.00 | 0.14 | 0.14 | 25 | 1019.9 |
| 20260506190047 | 58 | 59 | 3.0 | 11.0 | 0.00 | 0.14 | 0.14 | 28 | 1020.0 |
| 20260506184551 | 56 | 330 | 3.0 | 13.0 | 0.00 | 0.14 | 0.14 | 28 | 1020.0 |
| 20260506183057 | 56 | 341 | 4.0 | 14.0 | 0.00 | 0.14 | 0.14 | 28 | 1020.0 |
| 20260506181540 | 55 | 314 | 4.0 | 14.0 | 0.00 | 0.14 | 0.14 | 29 | 1020.0 |
| 20260506180041 | 55 | 345 | 5.0 | 15.0 | 0.00 | 0.14 | 0.14 | 26 | 1020.0 |
| 20260506174540 | 54 | 314 | 4.0 | 13.0 | 0.00 | 0.14 | 0.14 | 29 | 1020.0 |
| 20260506173034 | 54 | 145 | 3.0 | 12.0 | 0.00 | 0.14 | 0.14 | 32 | 1019.9 |
| 20260506171533 | 54 | 53 | 3.0 | 13.0 | 0.00 | 0.14 | 0.14 | 31 | 1019.7 |
| 20260506170033 | 53 | 326 | 4.0 | 15.0 | 0.00 | 0.14 | 0.14 | 34 | 1019.6 |
| 20260506164526 | 52 | 360 | 5.0 | 12.0 | 0.00 | 0.14 | 0.14 | 31 | 1019.4 |
| 20260506163026 | 52 | 14 | 6.0 | 14.0 | 0.00 | 0.14 | 0.14 | 33 | 1019.1 |
| 20260506161523 | 52 | 12 | 4.0 | 12.0 | 0.00 | 0.14 | 0.14 | 35 | 1018.9 |
| 20260506160022 | 51 | 4 | 3.0 | 10.0 | 0.00 | 0.14 | 0.14 | 39 | 1018.8 |
| 20260506154519 | 51 | 350 | 3.0 | 13.0 | 0.00 | 0.14 | 0.14 | 40 | 1018.6 |
| 20260506153018 | 50 | 278 | 3.0 | 12.0 | 0.00 | 0.14 | 0.14 | 42 | 1018.4 |
| 20260506151518 | 49 | 62 | 4.0 | 14.0 | 0.00 | 0.14 | 0.14 | 40 | 1018.2 |
| 20260506150014 | 50 | 5 | 3.0 | 10.0 | 0.00 | 0.14 | 0.14 | 44 | 1017.9 |
| 20260506144510 | 50 | 309 | 2.0 | 7.0 | 0.00 | 0.14 | 0.14 | 50 | 1017.8 |
| 20260506143017 | 49 | 10 | 1.0 | 5.0 | 0.00 | 0.14 | 0.14 | 52 | 1017.8 |
| 20260506141509 | 48 | 300 | 1.0 | 4.0 | 0.00 | 0.14 | 0.14 | 52 | 1017.6 |
| 20260506140005 | 47 | 26 | 0.0 | 4.0 | 0.00 | 0.14 | 0.14 | 55 | 1017.5 |
| 20260506134503 | 47 | 2 | 1.0 | 3.0 | 0.00 | 0.14 | 0.14 | 56 | 1017.5 |
| 20260506133103 | 45 | 13 | 0.0 | 3.0 | 0.00 | 0.14 | 0.14 | 59 | 1017.3 |